Location: Malmö
(55.6050°N, 13.0038°E)
Time: 03:17:37
(UTC+02:00)

ISS - Pass Details

Date: 31 July 2017
Orbit: 402 x 408 km, 51.6° (Epoch: 16 July)

Event Time Altitude Azimuth Distance (km) Brightness Sun altitude
Rises 22:52:53 0° 269° (W) 2,328 0.5 -10.5°
Reaches altitude 10° 22:55:05 10° 260° (W) 1,464 -0.7 -10.7°
Maximum altitude 22:58:04 33° 194° (SSW) 704 -3.0 -10.9°
Enters shadow 22:59:56 18° 140° (SE) 1,063 -2.4 -11.0°
